Regional Weather Roundup
Issued by NWS

Home | Current Version | Previous Version | Graphics & Text | Print | Product List | Glossary Off
Versions: 1 2 3 4 5 6 7 8 9 10 11 12 13 14 15 16 17 18 19 20 21 22 23 24 25 26 27 28 29 30 31 32 33 34 35 36 37 38 39 40 41 42 43 44 45 46 47 48 49 50

276
ASUS43 KTOP 071259
RWRKS

WEATHER ROUNDUP FOR KANSAS
NATIONAL WEATHER SERVICE GOODLAND KS
700 AM CST SUN FEB 07 2016

NOTE:  "FAIR" INDICATES FEW OR NO CLOUDS BELOW 12,000 FEET WITH NO
SIGNIFICANT WEATHER AND/OR OBSTRUCTIONS TO VISIBILITY.

KSZ001>006-013>018-027>032-041>047-071400-
NORTHWEST KANSAS

CITY           SKY/WX    TMP DP  RH WIND       PRES   REMARKS
GOODLAND       CLOUDY    27  17  66 NW13      30.17R WCI  16
HAYS           CLOUDY    37  21  52 W12       30.13R WCI  30
HILL CITY      CLOUDY    36  27  69 NW10      30.14R WCI  28
RUSSELL        CLOUDY    38  29  70 NW9       30.10R
$$

KSZ061>065-074>080-084>089-071400-
SOUTHWEST KANSAS

CITY           SKY/WX    TMP DP  RH WIND       PRES   REMARKS
DODGE CITY     CLOUDY    30  24  78 NW9       30.16R
ELKHART          N/A     34  20  57 NW8         N/A
GARDEN CITY    CLOUDY    31  25  78 NW12      30.16R WCI  22
GREAT BEND     CLOUDY    34  23  64 NW7       30.13R
LIBERAL        CLOUDY    32  21  64 NW7       30.17R
$$

KSZ066>073-081>083-090>101-071400-
SOUTHEAST KANSAS

CITY           SKY/WX    TMP DP  RH WIND       PRES   REMARKS
CHANUTE        PTCLDY    36  27  69 SW10      30.08R WCI  28
COFFEYVILLE    PTCLDY    32  26  78 S8        30.12R
HUTCHINSON     CLOUDY    35  26  69 NW7       30.11R
MEDICINE LODGE   N/A     34  25  69 N6        30.11S
NEWTON         CLOUDY    34  21  60 NW10      30.10R WCI  26
PARSONS        PTCLDY    35  27  72 S5        30.10S
WICHITA INTL   CLOUDY    34  24  67 NW6       30.09R
WICHITA JABRA  CLOUDY    35  24  64 W10       30.08R WCI  27
WINFIELD       MOCLDY    31  25  78 CALM      30.11R
$$

KSZ007>012-019>026-033>040-048>060-102>105-071400-
NORTHEAST KANSAS

CITY           SKY/WX    TMP DP  RH WIND       PRES   REMARKS
CONCORDIA      CLOUDY    35  27  72 W8        30.08R
EMPORIA        CLOUDY    38  26  62 W10       30.06R WCI  31
LAWRENCE       CLOUDY    35  27  72 NW6       30.02R
MANHATTAN      CLOUDY    36  28  73 W3        30.07R
OLATHE IND     CLOUDY    37  26  64 W9        30.02R
OLATHE EXE     CLOUDY    37  26  64 W10       30.01R WCI  30
SALINA         CLOUDY    37  28  70 W5        30.11R
TOPEKA BILLARD MOCLDY    39  26  59 W10       30.03R WCI  32
TOPEKA FORBES  CLOUDY    39  27  62 NW12      30.02R WCI  32
$$




USA.gov is the U.S. government's official web portal to all federal, state and local government web resources and services.